User: anonymous   Login
Location: Unspecified
(0.0000°N, 0.0000°E)
Time: 06:39:08
(UTC+00:00)
Language:

ONEWEB-0630 - Orbit

View from above orbital plane
View from above orbital plane
View from above satellite
View from above satellite

Ground track
Ground track

The orbit is defined by the following mean orbital elements,

1 56072U          26145.58522222 +.00000000 +00000-0 -12815-3 0 00000
2 56072  87.8988 263.6987 0001689  96.4465 263.6858 13.15550018    06
Epoch (UTC): 25 May 2026 14:02:43
Eccentricity: 0.0001689
inclination: 87.8988°
perigee height: 1200 km
apogee height: 1203 km
right ascension of ascending node: 263.6987°
argument of perigee: 96.4465°
revolutions per day: 13.15550018
mean anomaly at epoch: 263.6858°

The dashed part of the orbit path shows where the satellite is in the earth's shadow,  

DLR